Weather History for Long Beach, CA

Change the Weather History Date:

Monday, September 2, 2013

  Actual Average Record
Temperature  
Mean Temperature 79 °F 74 °F  
Max Temperature 90 °F 84 °F 101 °F (1982)
Min Temperature 68 °F 64 °F 55 °F (1964)
Degree Days  
Heating Degree Days 0 0  
Month to date heating degree days 0 0  
Since 1 July heating degree days 0 0  
Cooling Degree Days 14 9  
Month to date cooling degree days 30 18  
Year to date cooling degree days 840 786  
Growing Degree Days 29 (Base 50)    
Moisture  
Dew Point 64 °F    
Average Humidity 66    
Maximum Humidity 87    
Minimum Humidity 44    
Precipitation  
Precipitation 0.00 in 0.00 in 0.00 in (2015)
Month to date precipitation 0.00 0.00  
Year to date precipitation 2.94 8.50  
Since 1 July precipitation 0.07 0.06  
Sea Level Pressure  
Sea Level Pressure 29.87 in    
Wind  
Wind Speed 6 mph (WNW)    
Max Wind Speed 15 mph    
Max Gust Speed 18 mph    
Visibility 8 miles    
Events      
T = Trace of Precipitation, MM = Missing Value Source: NWS Daily Summary

Daily Weather History Graph

Daily Weather History Graph

Search for Another Location

Airport:

Trip Planner

Search our weather history database for the weather conditions in past years. The results will help you decide how hot, cold, wet, or windy it might be!

Date:

Astronomy

Sep. 02, 2013 Rise Set
Actual Time 6:27 AM PDT 7:16 PM PDT
Civil Twilight 6:01 AM PDT 7:41 PM PDT
Nautical Twilight 5:31 AM PDT 8:11 PM PDT
Astronomical Twilight 5:01 AM PDT 8:42 PM PDT
Moon 3:53 AM PDT (9/2) 5:29 PM PDT (9/2)
Length of Visible Light 13h 39m
Length of Day
12h 49m
Waning Crescent, 7% of the Moon is Illuminated
Sep 2
Waning Crescent
Sep 5
New
Sep 12
First Quarter
Sep 19
Full
Sep 26
Last Quarter

Hourly Weather History & Observations

Time (PDT) Temp. Heat Index Dew Point Humidity Pressure Visibility Wind Dir Wind Speed Gust Speed Precip Events Conditions
12:53 AM 72.0 °F - 64.9 °F 78% 29.89 in 10.0 mi Calm Calm - N/A   Clear
1:53 AM 71.1 °F - 64.0 °F 78% 29.89 in 10.0 mi WNW 4.6 mph - N/A   Clear
2:53 AM 70.0 °F - 64.0 °F 81% 29.89 in 10.0 mi NW 4.6 mph - N/A   Clear
3:53 AM 69.1 °F - 64.0 °F 84% 29.88 in 10.0 mi WNW 5.8 mph - N/A   Clear
4:53 AM 68.0 °F - 64.0 °F 87% 29.88 in 8.0 mi NW 5.8 mph - N/A   Partly Cloudy
5:14 AM 68.0 °F - 64.4 °F 88% 29.87 in 7.0 mi NW 5.8 mph - N/A   Mostly Cloudy
5:53 AM 68.0 °F - 64.9 °F 90% 29.88 in 6.0 mi WNW 5.8 mph - N/A   Overcast
6:15 AM 68.0 °F - 64.4 °F 88% 29.88 in 5.0 mi NW 3.5 mph - N/A   Overcast
6:53 AM 68.0 °F - 64.9 °F 90% 29.89 in 5.0 mi NW 3.5 mph - N/A   Overcast
7:35 AM 69.8 °F - 64.4 °F 83% 29.91 in 5.0 mi Calm Calm - N/A   Scattered Clouds
7:53 AM 70.0 °F - 64.9 °F 84% 29.91 in 3.0 mi Calm Calm - N/A   Mostly Cloudy
8:20 AM 71.6 °F - 64.4 °F 78% 29.91 in 3.0 mi Calm Calm - N/A   Scattered Clouds
8:53 AM 73.0 °F - 64.9 °F 76% 29.92 in 3.0 mi Calm Calm - N/A   Scattered Clouds
9:53 AM 79.0 °F - 64.9 °F 62% 29.91 in 8.0 mi Calm Calm - N/A   Clear
10:53 AM 79.0 °F - 64.9 °F 62% 29.91 in 10.0 mi SSW 5.8 mph - N/A   Clear
11:53 AM 80.1 °F 81.9 °F 64.9 °F 60% 29.90 in 10.0 mi South 6.9 mph - N/A   Clear
12:53 PM 84.9 °F 86.6 °F 64.9 °F 51% 29.88 in 10.0 mi South 6.9 mph - N/A   Clear
1:53 PM 89.1 °F 91.0 °F 64.9 °F 45% 29.85 in 10.0 mi WNW 9.2 mph 16.1 mph N/A   Mostly Cloudy
2:53 PM 86.0 °F 87.3 °F 64.0 °F 48% 29.83 in 10.0 mi WNW 10.4 mph - N/A   Clear
3:53 PM 84.9 °F 86.1 °F 64.0 °F 49% 29.81 in 10.0 mi NW 10.4 mph - N/A   Clear
4:53 PM 82.9 °F 84.4 °F 64.0 °F 53% 29.81 in 10.0 mi West 10.4 mph - N/A   Clear
5:53 PM 80.1 °F 81.7 °F 64.0 °F 58% 29.80 in 10.0 mi WNW 9.2 mph - N/A   Clear
6:53 PM 78.1 °F - 64.0 °F 62% 29.81 in 10.0 mi WNW 8.1 mph - N/A   Clear
7:53 PM 75.9 °F - 64.0 °F 67% 29.83 in 10.0 mi NNW 5.8 mph - N/A   Clear
8:53 PM 75.0 °F - 64.0 °F 69% 29.86 in 10.0 mi NNW 6.9 mph - N/A   Clear
9:53 PM 75.0 °F - 64.0 °F 69% 29.86 in 10.0 mi WNW 4.6 mph - N/A   Clear
10:53 PM 73.9 °F - 64.0 °F 71% 29.86 in 10.0 mi NNW 4.6 mph - N/A   Clear
11:53 PM 73.0 °F - 64.0 °F 73% 29.86 in 10.0 mi NW 3.5 mph - N/A   Clear